Flag for Mexico Weather past 2 weeks in Cancún, Quintana Roo, Mexico

Now
84 °F

Scattered clouds.


Feels Like: 90 °F
Forecast: 76 / 85 °F
Wind: 15 mph from Southeast

Location: Cancun International Airport

Current Time: Mar 5, 2015 at 11:43:44 AM

Latest Report: Mar 5, 2015 at 10:42 AM


Visibility: 7 mi

Pressure: 30.05 "Hg

Humidity: 66%

Dew point: 72 °F

Location of CancúnLocation

Historic Weather in Cancún — Graph

°F

Cancún temperature yesterday

Maximum temperature yesterday: 84 °F (at 10:45 AM)
Minimum temperature yesterday: 77 °F (at 4:44 AM)
Average temperature yesterday: 80 °F

Past Weeks' High & Low Weather Summary

 TemperatureHumidityPressure
High84 °F (Feb 24, 2:46 PM)100% (Feb 24, 12:44 AM)30.27 "Hg (Feb 24, 12:44 AM)
Low64 °F (Feb 20, 4:42 AM)44% (Feb 19, 12:46 PM)29.79 "Hg (Feb 26, 4:41 AM)
Average76 °F79%30.05 "Hg
* Reported Feb 18 9:41 AM — Mar 5 8:46 AM, Cancún, Weather by CustomWeather, © 2015

Note: Actual official high and low records may vary slightly from our data, if they occured in-between our weather recording intervals... More about our weather records

Advertising

Cancún weather history for previous 24 hours

 ConditionsComfort  
Time TempWeatherWind HumidityBarometerVisibility
8:46 AM
Thu, Mar 5
81 °FScattered clouds.14 mph74%30.00 "Hg7 mi
7:51 AM79 °FScattered clouds.14 mph79%29.98 "Hg7 mi
6:45 AM77 °FPassing clouds.12 mph89%29.96 "Hg7 mi
5:46 AM77 °FPassing clouds.13 mph83%29.95 "Hg7 mi
4:47 AM77 °FPassing clouds.14 mph89%29.94 "Hg7 mi
3:48 AM79 °FPassing clouds.13 mph84%29.96 "Hg7 mi
2:43 AM79 °FPassing clouds.12 mph84%29.96 "Hg7 mi
1:44 AM79 °FClear.12 mph84%29.98 "Hg7 mi
12:45 AM79 °FPassing clouds.16 mph79%29.99 "Hg7 mi
11:46 PM
Wed, Mar 4
79 °FPassing clouds.15 mph79%29.99 "Hg7 mi
10:47 PM79 °FPassing clouds.12 mph84%30.00 "Hg7 mi
9:48 PM79 °FPassing clouds.14 mph79%29.99 "Hg7 mi
8:45 PM79 °FPassing clouds.15 mph84%29.99 "Hg7 mi
7:47 PM79 °FPassing clouds.13 mph84%29.97 "Hg7 mi
4:47 PM82 °FPartly sunny.18 mph66%29.95 "Hg7 mi
3:50 PM82 °FPartly sunny.18 mph66%29.93 "Hg7 mi
2:41 PM84 °FScattered clouds.16 mph62%29.96 "Hg7 mi
12:47 PM82 °FScattered clouds.21 mph66%29.99 "Hg7 mi
11:40 AM82 °FScattered clouds.17 mph66%30.04 "Hg7 mi
Weather by CustomWeather, © 2015

See weather overviewHow to use our weather pages